Flag for Canada Weather past 2 weeks in Brantford, Ontario, Canada

28 °F

Passing clouds.

Feels Like: 23 °F
Forecast: 21 / 39 °F
Wind: 5 mph from South

Location: Hamilton Airport

Current Time: Nov 28, 2015 at 7:13:41 PM

Latest Report: Nov 28, 2015 at 6:00 PM

Visibility: 15 mi

Pressure: 30.33 "Hg

Humidity: 86%

Dew point: 25 °F

Location of BrantfordLocation

Historic Weather in Brantford — Graph


Brantford temperature yesterday

Maximum temperature yesterday: 57 °F (at 3:00 AM)
Minimum temperature yesterday: 36 °F (at 9:00 PM)
Average temperature yesterday: 50 °F

Past Weeks' High & Low Weather Summary

High61 °F (Nov 18, 1:00 PM)100% (Nov 14, 6:00 AM)30.58 "Hg (Nov 14, 6:00 AM)
Low18 °F (Nov 23, 5:00 AM)39% (Nov 19, 11:00 PM)29.60 "Hg (Nov 21, 11:00 PM)
Average41 °F76%30.19 "Hg
* Reported Nov 13 6:00 PM — Nov 28 6:00 PM, Brantford, Weather by CustomWeather, © 2015

Note: Actual official high and low records may vary slightly from our data, if they occured in-between our weather recording intervals... More about our weather records


Brantford weather history for previous 24 hours

Time TempWeatherWind HumidityBarometerVisibility
6:00 PM
Sat, Nov 28
28 °FPassing clouds.5 mph86%30.33 "Hg15 mi
5:00 PM30 °FPassing clouds.3 mph80%30.33 "Hg15 mi
4:00 PM32 °FScattered clouds.5 mph75%30.31 "Hg15 mi
3:00 PM34 °FBroken clouds.5 mph75%30.32 "Hg15 mi
2:00 PM32 °FPartly sunny.No wind80%30.33 "Hg15 mi
1:00 PM32 °FOvercast.7 mph87%30.33 "Hg15 mi
12:00 PM32 °FOvercast.6 mph87%30.34 "Hg15 mi
11:00 AM32 °FOvercast.6 mph87%30.37 "Hg15 mi
10:00 AM32 °FOvercast.8 mph80%30.37 "Hg15 mi
9:00 AM30 °FLow clouds.7 mph86%30.36 "Hg15 mi
8:00 AM30 °FOvercast.10 mph86%30.36 "Hg15 mi
7:00 AM30 °FOvercast.9 mph86%30.36 "Hg15 mi
6:00 AM32 °FLight snow. Overcast.10 mph87%30.34 "Hg15 mi
5:00 AM32 °FLight snow. Mostly cloudy.13 mph87%30.33 "Hg15 mi
4:00 AM32 °FLight snow. Mostly cloudy.10 mph87%30.33 "Hg15 mi
3:00 AM32 °FLight snow. Overcast.10 mph87%30.34 "Hg15 mi
1:00 AM34 °FLight rain. Mostly cloudy.6 mph93%30.33 "Hg15 mi
12:00 AM34 °FLight rain. Mostly cloudy.7 mph93%30.33 "Hg12 mi
11:00 PM
Fri, Nov 27
36 °FLight rain. Overcast.5 mph87%30.33 "Hg8 mi
10:00 PM36 °FLight rain. Overcast.7 mph87%30.32 "Hg7 mi
9:00 PM36 °FDrizzle. Mostly cloudy.13 mph93%30.32 "Hg15 mi
8:00 PM37 °FLight rain. Fog.12 mph93%30.31 "Hg6 mi
7:00 PM41 °FLight rain. Fog.14 mph93%30.29 "Hg6 mi
Weather by CustomWeather, © 2015

See weather overviewHow to use our weather pages